Погода в Сен-Жероме

Канада     45°47′19″N   74°00′46″W
темп.,
°C
ветер,
м/с
пор.,
м/с
влажн.,
%
обл.,
%
осадки,
мм/ч
давл.,
гПа
погр.,
м
6 мая, чт
чт623:00+8сз51085100 0.1 1008619
02:00+5сз6128490 0.1 1009709
05:00+5сз6117027 0.0 1011791
08:00+5сз611621 0.0 1013925
11:00+9сз68425 0.0 10141574
14:00+12зсз573426 0.0 10132396
17:00+13зсз573583 0.0 10122634
20:00+7зсз33573 0.0 101434
7 мая, пт
пт723:00+4ссз22595 0.0 101515
02:00+3ссз006460 0.0 101510
05:00+2св346968 0.0 101577
08:00+5всв356559 0.0 1016316
11:00+10в335885 0.0 1015885
14:00+13вюв344585 0.1 10132055
17:00+13в4549100 0.0 10121421
20:00+10св496499 0.0 1012348
8 мая, сб
сб823:00+9всв51362100 0.0 1011468
02:00+7св596787 0.0 1010330
05:00+5св4973100 0.0 1010261
08:00+6св6974100 0.0 1012349
11:00+10всв5665100 0.0 1011654
14:00+13всв4452100 0.0 10101388
17:00+13в1254100 0.1 10101176
20:00+9зюз3586100 0.2 1011161
9 мая, вс
вс923:00+6з2496100 0.0 101283
02:00+6сз1191100 0.1 1012100
05:00+6юз239572 0.2 1012145
08:00+7зсз468136 0.2 1013596
11:00+12зсз46515 0.0 10131368
14:00+14зюз554671 0.1 10111797
17:00+12з456250 1.0 10111186
20:00+9зсз3682100 1.8 1011128
10 мая, пн
пн1023:00+7з1185100 0.0 101012
02:00+6с1186100 0.0 100910
05:00+6св3690100 0.0 1007141
08:00+7св4784100 0.0 1006358
11:00+9св3480100 0.4 1006596
14:00+13ссз1259100 0.6 10061291
17:00+8сз1291100 1.1 100788
20:00+8з2388100 2.0 100773